Terug naar catalogus

STARLINK-35077

ActiefCommunicatieSSO
NORAD 65529·PAYLOAD·🇺🇸 United States

Gelanceerd Sep 6, 2025 vanaf Cape Canaveral Space Force Station

Loading…

Volgende Passages (komende 24 uur)

TLE

VersSource: CelesTrak SupGP

Epoch: Sep 14, 2026, 14:40 UTC

1 65529C 25200K   26257.61159722  .00082564  00000+0  25625-2 0  2574
2 65529  97.2855 324.0229 0000796  97.4600 313.3445 15.33404347    13

Volg STARLINK-35077 in realtime met AllMySat

Download on the App Store